Pasco, WA

4:39 AM PDT on August 24, 2016 (GMT -0700)
Tri-Cities

Weather History for KPSC - January, 2013

Change the Weather History Date:

Tuesday, January 22, 2013

  Actual Average Record
Temperature  
Mean Temperature 26 °F 36 °F  
Max Temperature 27 °F 43 °F 59 °F (2016)
Min Temperature 25 °F 29 °F 7 °F (2008)
Degree Days  
Heating Degree Days 39 29  
Month to date heating degree days 753 677  
Since 1 July heating degree days 2660 2893  
Cooling Degree Days 0 0  
Month to date cooling degree days 0 0  
Year to date cooling degree days 0 0  
Moisture  
Dew Point 21 °F    
Average Humidity 82    
Maximum Humidity 88    
Minimum Humidity 75    
Precipitation  
Precipitation 0.00 in 0.03 in 0.42 in (1989)
Month to date precipitation 0.27 0.96  
Year to date precipitation 0.27 0.96  
Snow  
Snow 0.00 in - - ()
Snow Depth 0.00 in    
Sea Level Pressure  
Sea Level Pressure 30.35 in    
Wind  
Wind Speed 5 mph (NNW)    
Max Wind Speed 9 mph    
Max Gust Speed 12 mph    
Visibility 10 miles    
Events      
T = Trace of Precipitation, MM = Missing Value Source: NWS Daily Summary

Daily Weather History Graph

Daily Weather History Graph

Search for Another Location

Airport or City:

Trip Planner

Search our weather history database for the weather conditions in past years. The results will help you decide how hot, cold, wet, or windy it might be!

Date:

Astronomy

Jan. 22, 2013 Rise Set
Actual Time 7:29 AM PST 4:47 PM PST
Civil Twilight 6:56 AM PST 5:20 PM PST
Nautical Twilight 6:20 AM PST 5:56 PM PST
Astronomical Twilight 5:44 AM PST 6:32 PM PST
Moon 1:11 PM PST (1/22) 3:57 AM PST (1/22)
Length of Visible Light 10h 23m
Length of Day
9h 17m
Waxing Gibbous, 83% of the Moon is Illuminated
Jan 22
Waxing Gibbous
Jan 26
Full
Feb 3
Last Quarter
Feb 9
New
Feb 17
First Quarter

Hourly Weather History & Observations

Time (PST) Temp. Windchill Dew Point Humidity Pressure Visibility Wind Dir Wind Speed Gust Speed Precip Events Conditions
12:53 AM 25.0 °F 18.1 °F 21.9 °F 88% 30.43 in 10.0 mi North 5.8 mph - N/A   Overcast
1:53 AM 25.0 °F 20.7 °F 21.9 °F 88% 30.42 in 10.0 mi North 3.5 mph - N/A   Overcast
2:53 AM 25.0 °F 18.1 °F 21.0 °F 85% 30.43 in 10.0 mi NNW 5.8 mph - N/A   Overcast
3:53 AM 25.0 °F 17.1 °F 21.0 °F 85% 30.40 in 10.0 mi NNW 6.9 mph - N/A   Overcast
4:53 AM 25.0 °F 17.1 °F 21.0 °F 85% 30.40 in 10.0 mi NW 6.9 mph - N/A   Overcast
5:53 AM 25.0 °F 18.1 °F 21.0 °F 85% 30.39 in 10.0 mi NW 5.8 mph - N/A   Overcast
6:53 AM 25.0 °F 16.3 °F 21.0 °F 85% 30.40 in 8.0 mi NNW 8.1 mph - N/A   Overcast
7:53 AM 25.0 °F 18.1 °F 19.9 °F 81% 30.40 in 10.0 mi North 5.8 mph - N/A   Overcast
8:53 AM 25.0 °F 18.1 °F 19.9 °F 81% 30.41 in 10.0 mi NW 5.8 mph - N/A   Overcast
9:53 AM 25.0 °F 17.1 °F 19.9 °F 81% 30.39 in 10.0 mi NW 6.9 mph - N/A   Overcast
10:53 AM 26.1 °F 17.6 °F 19.9 °F 78% 30.40 in 7.0 mi WNW 8.1 mph - N/A   Overcast
11:53 AM 26.1 °F 18.4 °F 19.9 °F 78% 30.39 in 10.0 mi NNW 6.9 mph - N/A   Overcast
12:53 PM 27.0 °F - 19.0 °F 72% 30.38 in 10.0 mi Calm Calm - N/A   Overcast
1:53 PM 27.0 °F 19.5 °F 19.0 °F 72% 30.35 in 10.0 mi North 6.9 mph - N/A   Overcast
2:53 PM 27.0 °F 19.5 °F 19.0 °F 72% 30.35 in 10.0 mi NW 6.9 mph - N/A   Overcast
3:53 PM 26.1 °F 21.9 °F 19.0 °F 75% 30.34 in 10.0 mi WNW 3.5 mph - N/A   Overcast
4:53 PM 26.1 °F 19.4 °F 19.9 °F 78% 30.32 in 10.0 mi WNW 5.8 mph - N/A   Overcast
5:53 PM 26.1 °F 20.5 °F 19.9 °F 78% 30.32 in 10.0 mi NW 4.6 mph - N/A   Overcast
6:53 PM 26.1 °F 21.9 °F 21.0 °F 81% 30.31 in 10.0 mi NW 3.5 mph - N/A   Overcast
7:53 PM 26.1 °F - 21.0 °F 81% 30.30 in 10.0 mi Calm Calm - N/A   Overcast
8:53 PM 26.1 °F 21.9 °F 21.0 °F 81% 30.30 in 10.0 mi NNW 3.5 mph - N/A   Overcast
9:53 PM 26.1 °F 17.6 °F 21.9 °F 84% 30.29 in 10.0 mi NNW 8.1 mph - N/A   Overcast
10:53 PM 26.1 °F 21.9 °F 21.0 °F 81% 30.29 in 10.0 mi NW 3.5 mph - N/A   Overcast
11:06 PM 26.6 °F 21.2 °F 21.2 °F 80% 30.27 in 10.0 mi NNW 4.6 mph - N/A   Overcast
11:21 PM 26.6 °F 21.2 °F 21.2 °F 80% 30.28 in 10.0 mi WNW 4.6 mph - N/A   Overcast
11:53 PM 26.1 °F 21.9 °F 21.0 °F 81% 30.27 in 10.0 mi NNW 3.5 mph - N/A   Overcast